START_TIME,STEP,MOV.,M34,t_acc.,L5,t_acc.,L18,t_acc.,L14,t_acc.
1979-07-22 00:00:24.370 ,0,0,0.,12.0,0.,12.0,0.,12.0,0.,12.0
1979-07-22 00:00:36.370 ,0,0,0.,12.0,0.,12.0,0.,12.0,0.,12.0
1979-07-22 00:00:48.370 ,1,1,0.,12.0,0.,12.0,0.,12.0,0.,12.0
1979-07-22 00:01:00.370 ,1,1,0.,12.0,0.,12.0,0.,12.0,0.,12.0
1979-07-22 00:01:12.370 ,1,0,0.,12.0,0.,12.0,0.,12.0,0.,12.0
1979-07-22 00:01:24.370 ,1,0,0.,12.0,0.,12.0,0.,12.0,0.,12.0
1979-07-22 00:01:36.360 ,2,1,0.,12.0,0.,12.0,0.,12.0,0.,12.0
1979-07-22 00:01:48.370 ,2,1,0.,12.0,0.,12.0,0.,12.0,0.,12.0
1979-07-22 00:02:00.370 ,2,0,0.,12.0,0.,12.0,0.,12.0,0.,12.0
1979-07-22 00:02:12.370 ,2,0,0.,12.0,0.,12.0,0.,12.0,0.,12.0
1979-07-22 00:02:24.360 ,3,1,1.,12.0,0.,12.0,0.,12.0,0.,12.0
1979-07-22 00:02:36.370 ,3,1,0.,12.0,0.,12.0,0.,12.0,0.,12.0
1979-07-22 00:02:48.360 ,3,0,0.,12.0,0.,12.0,0.,12.0,0.,12.0
1979-07-22 00:03:00.370 ,3,0,0.,12.0,0.,12.0,0.,12.0,0.,12.0
1979-07-22 00:03:12.360 ,4,1,1.,12.0,0.,12.0,0.,12.0,0.,12.0
1979-07-22 00:03:24.370 ,4,1,0.,12.0,0.,12.0,0.,12.0,0.,12.0
1979-07-22 00:03:36.360 ,4,0,0.,12.0,0.,12.0,0.,12.0,0.,12.0
1979-07-22 00:03:48.370 ,4,0,0.,12.0,0.,12.0,0.,12.0,0.,12.0
1979-07-22 00:04:00.360 ,5,1,0.,12.0,0.,12.0,0.,12.0,0.,12.0
1979-07-22 00:04:12.360 ,5,1,0.,12.0,0.,12.0,0.,12.0,0.,12.0
1979-07-22 00:04:24.370 ,5,0,0.,12.0,0.,12.0,0.,12.0,0.,12.0
1979-07-22 00:04:36.370 ,5,0,0.,12.0,0.,12.0,0.,12.0,0.,12.0
1979-07-22 00:04:48.370 ,6,1,0.,12.0,0.,12.0,0.,12.0,0.,12.0
1979-07-22 00:05:00.370 ,6,1,0.,12.0,0.,12.0,0.,12.0,0.,12.0
1979-07-22 00:05:12.370 ,6,0,0.,12.0,0.,12.0,0.,12.0,0.,12.0
1979-07-22 00:05:24.370 ,6,0,0.,12.0,0.,12.0,0.,12.0,0.,12.0
1979-07-22 00:05:36.370 ,7,1,0.,12.0,0.,12.0,0.,12.0,0.,12.0
1979-07-22 00:05:48.370 ,7,1,0.,12.0,0.,12.0,0.,12.0,0.,12.0
1979-07-22 00:06:00.370 ,7,0,0.,12.0,0.,12.0,0.,12.0,0.,12.0
1979-07-22 00:06:12.370 ,7,0,0.,12.0,0.,12.0,0.,12.0,0.,12.0
1979-07-22 00:06:24.370 ,7,1,0.,12.0,0.,12.0,0.,12.0,0.,12.0
1979-07-22 00:06:36.370 ,7,1,0.,12.0,0.,12.0,0.,12.0,0.,12.0
1979-07-22 00:06:48.370 ,7,0,0.,12.0,0.,12.0,0.,12.0,0.,12.0
1979-07-22 00:07:00.370 ,7,0,0.,12.0,0.,12.0,0.,12.0,0.,12.0
1979-07-22 00:07:12.360 ,6,1,0.,12.0,0.,12.0,0.,12.0,0.,12.0
1979-07-22 00:07:24.360 ,6,1,0.,12.0,0.,12.0,0.,12.0,0.,12.0
1979-07-22 00:07:36.360 ,6,0,0.,12.0,0.,12.0,0.,12.0,0.,12.0
1979-07-22 00:07:48.360 ,6,0,0.,12.0,0.,12.0,0.,12.0,0.,12.0
1979-07-22 00:08:00.360 ,5,1,0.,12.0,0.,12.0,0.,12.0,0.,12.0
1979-07-22 00:08:12.360 ,5,1,0.,12.0,0.,12.0,0.,12.0,0.,12.0
1979-07-22 00:08:24.360 ,5,0,0.,12.0,0.,12.0,0.,12.0,0.,12.0
1979-07-22 00:08:36.360 ,5,0,0.,12.0,0.,12.0,0.,12.0,0.,12.0
1979-07-22 00:08:48.360 ,4,1,0.,12.0,0.,12.0,0.,12.0,0.,12.0
1979-07-22 00:09:00.360 ,4,1,0.,12.0,0.,12.0,0.,12.0,0.,12.0
1979-07-22 00:09:12.360 ,4,0,0.,12.0,0.,12.0,0.,12.0,0.,12.0
1979-07-22 00:09:24.360 ,4,0,0.,12.0,0.,12.0,0.,12.0,0.,12.0
1979-07-22 00:09:36.360 ,3,1,0.,12.0,0.,12.0,0.,12.0,0.,12.0
1979-07-22 00:09:48.360 ,3,1,0.,12.0,0.,12.0,0.,12.0,0.,12.0
1979-07-22 00:10:00.360 ,3,0,0.,12.0,0.,12.0,0.,12.0,0.,12.0
1979-07-22 00:10:12.360 ,3,0,0.,12.0,0.,12.0,0.,12.0,0.,12.0
1979-07-22 00:10:24.360 ,2,1,0.,12.0,0.,12.0,0.,12.0,0.,12.0
1979-07-22 00:10:36.360 ,2,1,0.,12.0,0.,12.0,0.,12.0,0.,12.0
1979-07-22 00:10:48.360 ,2,0,0.,12.0,0.,12.0,0.,12.0,0.,12.0
1979-07-22 00:11:00.360 ,2,0,0.,12.0,0.,12.0,0.,12.0,0.,12.0
1979-07-22 00:11:12.360 ,1,1,0.,12.0,0.,12.0,0.,12.0,0.,12.0
1979-07-22 00:11:24.360 ,1,1,0.,12.0,0.,12.0,0.,12.0,0.,12.0
1979-07-22 00:11:36.360 ,1,0,0.,12.0,0.,12.0,0.,12.0,0.,12.0
1979-07-22 00:11:48.360 ,1,0,0.,12.0,0.,12.0,0.,12.0,0.,12.0
1979-07-22 00:12:00.360 ,0,1,0.,12.0,0.,12.0,0.,12.0,0.,12.0
1979-07-22 00:12:12.360 ,0,1,0.,12.0,0.,12.0,0.,12.0,0.,12.0
1979-07-22 00:12:24.360 ,0,0,0.,12.0,0.,12.0,0.,12.0,0.,12.0
1979-07-22 00:12:36.360 ,0,0,0.,12.0,0.,12.0,0.,12.0,0.,12.0
1979-07-22 00:12:48.360 ,0,1,0.,12.0,0.,12.0,0.,12.0,0.,12.0
1979-07-22 00:13:00.360 ,0,1,0.,12.0,0.,12.0,0.,12.0,0.,12.0
1979-07-22 00:13:12.360 ,0,0,0.,12.0,0.,12.0,0.,12.0,0.,12.0
1979-07-22 00:13:24.360 ,0,0,0.,12.0,0.,12.0,0.,12.0,0.,12.0
1979-07-22 00:13:36.360 ,1,1,1.,12.0,0.,12.0,0.,12.0,0.,12.0
1979-07-22 00:13:48.360 ,1,1,0.,12.0,0.,12.0,0.,12.0,0.,12.0
1979-07-22 00:14:00.360 ,1,0,0.,12.0,0.,12.0,0.,12.0,0.,12.0
1979-07-22 00:14:12.360 ,1,0,0.,12.0,0.,12.0,0.,12.0,0.,12.0
1979-07-22 00:14:24.360 ,2,1,0.,12.0,0.,12.0,0.,12.0,0.,12.0
1979-07-22 00:14:36.360 ,2,1,0.,12.0,0.,12.0,0.,12.0,0.,12.0
1979-07-22 00:14:48.360 ,2,0,0.,12.0,0.,12.0,0.,12.0,0.,12.0
1979-07-22 00:15:00.360 ,2,0,0.,12.0,0.,12.0,0.,12.0,0.,12.0
1979-07-22 00:15:12.360 ,3,1,0.,12.0,0.,12.0,0.,12.0,0.,12.0
1979-07-22 00:15:24.360 ,3,1,0.,12.0,0.,12.0,0.,12.0,0.,12.0
1979-07-22 00:15:36.360 ,3,0,0.,12.0,0.,12.0,0.,12.0,0.,12.0
1979-07-22 00:15:48.360 ,3,0,0.,12.0,0.,12.0,0.,12.0,0.,12.0
1979-07-22 00:16:00.360 ,4,1,0.,12.0,0.,12.0,0.,12.0,0.,12.0
1979-07-22 00:16:12.360 ,4,1,0.,12.0,0.,12.0,0.,12.0,0.,12.0
1979-07-22 00:16:24.360 ,4,0,0.,12.0,0.,12.0,0.,12.0,0.,12.0
1979-07-22 00:16:36.360 ,4,0,0.,12.0,0.,12.0,0.,12.0,0.,12.0
1979-07-22 00:16:48.360 ,5,1,0.,12.0,0.,12.0,0.,12.0,0.,12.0
1979-07-22 00:17:00.360 ,5,1,0.,12.0,0.,12.0,0.,12.0,0.,12.0
1979-07-22 00:17:12.360 ,5,0,0.,12.0,0.,12.0,0.,12.0,0.,12.0
1979-07-22 00:17:24.360 ,5,0,0.,12.0,0.,12.0,0.,12.0,0.,12.0
1979-07-22 00:17:36.360 ,6,1,0.,12.0,0.,12.0,0.,12.0,0.,12.0
1979-07-22 00:17:48.360 ,6,1,0.,12.0,0.,12.0,0.,12.0,0.,12.0
1979-07-22 00:18:00.360 ,6,0,0.,12.0,0.,12.0,0.,12.0,0.,12.0
1979-07-22 00:18:12.360 ,6,0,0.,12.0,0.,12.0,0.,12.0,0.,12.0
1979-07-22 00:18:24.360 ,7,0,0.,12.0,0.,12.0,0.,12.0,0.,12.0
1979-07-22 00:18:36.360 ,7,0,0.,12.0,0.,12.0,0.,12.0,0.,12.0
1979-07-22 00:18:48.360 ,7,0,0.,12.0,0.,12.0,0.,12.0,0.,12.0
1979-07-22 00:19:00.360 ,7,0,0.,12.0,0.,12.0,0.,12.0,0.,12.0
1979-07-22 00:19:12.360 ,4,1,0.,12.0,0.,12.0,0.,12.0,0.,12.0
1979-07-22 00:19:24.360 ,4,1,0.,12.0,0.,12.0,0.,12.0,0.,12.0
1979-07-22 00:19:36.360 ,0,1,0.,12.0,0.,12.0,0.,12.0,0.,12.0
1979-07-22 00:19:48.360 ,0,1,0.,12.0,0.,12.0,0.,12.0,0.,12.0
1979-07-22 00:20:00.360 ,3,1,0.,12.0,0.,12.0,0.,12.0,0.,12.0
1979-07-22 00:20:12.360 ,3,1,0.,12.0,0.,12.0,0.,12.0,0.,12.0
1979-07-22 00:20:24.360 ,7,1,0.,12.0,0.,12.0,0.,12.0,0.,12.0
1979-07-22 00:20:36.360 ,7,1,0.,12.0,0.,12.0,0.,12.0,0.,12.0
1979-07-22 00:20:48.360 ,4,1,0.,12.0,0.,12.0,0.,12.0,0.,12.0
1979-07-22 00:21:00.360 ,4,1,0.,12.0,0.,12.0,0.,12.0,0.,12.0
1979-07-22 00:21:12.360 ,0,1,0.,12.0,0.,12.0,0.,12.0,0.,12.0
1979-07-22 00:21:24.360 ,0,1,0.,12.0,0.,12.0,0.,12.0,0.,12.0
1979-07-22 00:21:36.360 ,3,1,0.,12.0,0.,12.0,0.,12.0,0.,12.0
1979-07-22 00:21:48.360 ,3,1,0.,12.0,0.,12.0,0.,12.0,0.,12.0
1979-07-22 00:22:00.360 ,7,1,0.,12.0,0.,12.0,0.,12.0,0.,12.0
1979-07-22 00:22:12.360 ,7,1,0.,12.0,0.,12.0,0.,12.0,0.,12.0
1979-07-22 00:22:24.360 ,4,1,0.,12.0,0.,12.0,0.,12.0,0.,12.0
1979-07-22 00:22:36.360 ,4,1,0.,12.0,0.,12.0,0.,12.0,0.,12.0
1979-07-22 00:22:48.360 ,0,1,0.,12.0,0.,12.0,0.,12.0,0.,12.0
1979-07-22 00:23:00.360 ,0,1,0.,12.0,0.,12.0,0.,12.0,0.,12.0
1979-07-22 00:23:12.360 ,3,1,0.,12.0,0.,12.0,0.,12.0,0.,12.0
1979-07-22 00:23:24.360 ,3,1,0.,12.0,0.,12.0,0.,12.0,0.,12.0
1979-07-22 00:23:36.360 ,7,1,0.,12.0,0.,12.0,0.,12.0,0.,12.0
1979-07-22 00:23:48.360 ,7,1,0.,12.0,0.,12.0,0.,12.0,0.,12.0
1979-07-22 00:24:00.360 ,4,1,0.,12.0,0.,12.0,0.,12.0,0.,12.0
1979-07-22 00:24:12.360 ,4,1,1.,12.0,0.,12.0,0.,12.0,0.,12.0
1979-07-22 00:24:24.360 ,0,1,0.,12.0,0.,12.0,0.,12.0,0.,12.0
1979-07-22 00:24:36.360 ,0,1,0.,12.0,0.,12.0,0.,12.0,0.,12.0
1979-07-22 00:24:48.360 ,3,1,0.,12.0,0.,12.0,0.,12.0,0.,12.0
1979-07-22 00:25:00.360 ,3,1,0.,12.0,0.,12.0,0.,12.0,0.,12.0
1979-07-22 00:25:12.360 ,7,1,0.,12.0,0.,12.0,0.,12.0,0.,12.0
1979-07-22 00:25:24.360 ,7,1,0.,12.0,0.,12.0,0.,12.0,0.,12.0
1979-07-22 00:25:36.360 ,4,1,0.,12.0,0.,12.0,0.,12.0,0.,12.0
1979-07-22 00:25:48.360 ,4,1,0.,12.0,0.,12.0,0.,12.0,0.,12.0
1979-07-22 00:26:00.360 ,0,1,0.,12.0,0.,12.0,0.,12.0,0.,12.0
1979-07-22 00:26:12.360 ,0,1,0.,12.0,0.,12.0,0.,12.0,0.,12.0
1979-07-22 00:26:24.360 ,3,1,0.,12.0,0.,12.0,0.,12.0,0.,12.0
1979-07-22 00:26:36.360 ,3,1,0.,12.0,0.,12.0,0.,12.0,0.,12.0
1979-07-22 00:26:48.360 ,7,1,0.,12.0,0.,12.0,0.,12.0,0.,12.0
1979-07-22 00:27:00.360 ,7,1,0.,12.0,0.,12.0,0.,12.0,0.,12.0
1979-07-22 00:27:12.360 ,4,1,0.,12.0,0.,12.0,0.,12.0,0.,12.0
1979-07-22 00:27:24.360 ,4,1,0.,12.0,0.,12.0,0.,12.0,0.,12.0
1979-07-22 00:27:36.360 ,0,1,0.,12.0,0.,12.0,0.,12.0,0.,12.0
1979-07-22 00:27:48.360 ,0,1,0.,12.0,0.,12.0,0.,12.0,0.,12.0
1979-07-22 00:28:00.360 ,3,1,0.,12.0,0.,12.0,0.,12.0,0.,12.0
1979-07-22 00:28:12.360 ,3,1,0.,12.0,0.,12.0,0.,12.0,0.,12.0
1979-07-22 00:28:24.360 ,7,1,0.,12.0,0.,12.0,0.,12.0,0.,12.0
1979-07-22 00:28:36.360 ,7,1,0.,12.0,0.,12.0,0.,12.0,0.,12.0
1979-07-22 00:28:48.360 ,4,1,0.,12.0,0.,12.0,0.,12.0,0.,12.0
1979-07-22 00:29:00.360 ,4,1,0.,12.0,0.,12.0,0.,12.0,0.,12.0
1979-07-22 00:29:12.360 ,0,1,0.,12.0,0.,12.0,0.,12.0,0.,12.0
1979-07-22 00:29:24.360 ,0,1,0.,12.0,0.,12.0,0.,12.0,0.,12.0
1979-07-22 00:29:36.360 ,0,0,0.,12.0,0.,12.0,0.,12.0,0.,12.0
1979-07-22 00:29:48.360 ,0,0,1.,12.0,0.,12.0,0.,12.0,0.,12.0
1979-07-22 00:30:00.360 ,0,0,0.,12.0,0.,12.0,0.,12.0,0.,12.0
1979-07-22 00:30:12.360 ,0,0,0.,12.0,0.,12.0,0.,12.0,0.,12.0
1979-07-22 00:30:24.360 ,5,1,0.,12.0,0.,12.0,0.,12.0,0.,12.0
1979-07-22 00:30:36.360 ,5,1,0.,12.0,0.,12.0,0.,12.0,0.,12.0
1979-07-22 00:30:48.360 ,5,0,0.,12.0,0.,12.0,0.,12.0,0.,12.0
1979-07-22 00:31:00.360 ,5,0,0.,12.0,0.,12.0,0.,12.0,0.,12.0
1979-07-22 00:31:12.360 ,4,1,0.,12.0,0.,12.0,0.,12.0,0.,12.0
1979-07-22 00:31:24.360 ,4,1,0.,12.0,0.,12.0,0.,12.0,0.,12.0
1979-07-22 00:31:36.360 ,4,0,0.,12.0,0.,12.0,0.,12.0,0.,12.0
1979-07-22 00:31:48.360 ,4,0,0.,12.0,0.,12.0,0.,12.0,0.,12.0
1979-07-22 00:32:00.360 ,3,1,0.,12.0,0.,12.0,0.,12.0,0.,12.0
1979-07-22 00:32:12.360 ,3,1,1.,12.0,0.,12.0,0.,12.0,0.,12.0
1979-07-22 00:32:24.360 ,3,0,0.,12.0,0.,12.0,0.,12.0,0.,12.0
1979-07-22 00:32:36.360 ,3,0,0.,12.0,0.,12.0,0.,12.0,0.,12.0
1979-07-22 00:32:48.360 ,2,1,0.,12.0,0.,12.0,0.,12.0,0.,12.0
1979-07-22 00:33:00.360 ,2,1,0.,12.0,0.,12.0,0.,12.0,0.,12.0
1979-07-22 00:33:12.360 ,2,0,0.,12.0,0.,12.0,0.,12.0,0.,12.0
1979-07-22 00:33:24.360 ,2,0,0.,12.0,0.,12.0,0.,12.0,0.,12.0
1979-07-22 00:33:36.360 ,1,1,0.,12.0,0.,12.0,0.,12.0,0.,12.0
1979-07-22 00:33:48.360 ,1,1,0.,12.0,0.,12.0,0.,12.0,0.,12.0
1979-07-22 00:34:00.360 ,1,0,0.,12.0,0.,12.0,0.,12.0,0.,12.0
1979-07-22 00:34:12.360 ,1,0,0.,12.0,0.,12.0,0.,12.0,0.,12.0
1979-07-22 00:34:24.360 ,0,1,0.,12.0,0.,12.0,0.,12.0,0.,12.0
1979-07-22 00:34:36.360 ,0,1,0.,12.0,0.,12.0,0.,12.0,0.,12.0
1979-07-22 00:34:48.360 ,0,0,0.,12.0,0.,12.0,0.,12.0,0.,12.0
1979-07-22 00:35:00.360 ,0,0,0.,12.0,0.,12.0,0.,12.0,0.,12.0
1979-07-22 00:35:12.360 ,0,1,0.,12.0,0.,12.0,0.,12.0,0.,12.0
1979-07-22 00:35:24.360 ,0,1,0.,12.0,0.,12.0,0.,12.0,0.,12.0
1979-07-22 00:35:36.360 ,0,0,0.,12.0,0.,12.0,0.,12.0,0.,12.0
1979-07-22 00:35:48.360 ,0,0,0.,12.0,0.,12.0,0.,12.0,0.,12.0
1979-07-22 00:36:00.360 ,1,1,0.,12.0,0.,12.0,0.,12.0,0.,12.0
1979-07-22 00:36:12.360 ,1,1,0.,12.0,0.,12.0,0.,12.0,0.,12.0
1979-07-22 00:36:24.360 ,1,0,0.,12.0,0.,12.0,0.,12.0,0.,12.0
1979-07-22 00:36:36.360 ,1,0,0.,12.0,0.,12.0,0.,12.0,0.,12.0
1979-07-22 00:36:48.360 ,2,1,0.,12.0,0.,12.0,0.,12.0,0.,12.0
1979-07-22 00:37:00.360 ,2,1,0.,12.0,0.,12.0,0.,12.0,0.,12.0
1979-07-22 00:37:12.360 ,2,0,0.,12.0,0.,12.0,0.,12.0,0.,12.0
1979-07-22 00:37:24.360 ,2,0,0.,12.0,0.,12.0,0.,12.0,0.,12.0
1979-07-22 00:37:36.360 ,3,1,0.,12.0,0.,12.0,0.,12.0,0.,12.0
1979-07-22 00:37:48.360 ,3,1,0.,12.0,0.,12.0,0.,12.0,0.,12.0
1979-07-22 00:38:00.360 ,3,0,0.,12.0,0.,12.0,0.,12.0,0.,12.0
1979-07-22 00:38:12.360 ,3,0,0.,12.0,0.,12.0,0.,12.0,0.,12.0
1979-07-22 00:38:24.360 ,4,1,0.,12.0,0.,12.0,0.,12.0,0.,12.0
1979-07-22 00:38:36.360 ,4,1,0.,12.0,0.,12.0,0.,12.0,0.,12.0
1979-07-22 00:38:48.360 ,4,0,0.,12.0,0.,12.0,0.,12.0,0.,12.0
1979-07-22 00:39:00.360 ,4,0,0.,12.0,0.,12.0,0.,12.0,0.,12.0
1979-07-22 00:39:12.360 ,5,1,0.,12.0,0.,12.0,0.,12.0,0.,12.0
1979-07-22 00:39:24.360 ,5,1,0.,12.0,0.,12.0,0.,12.0,0.,12.0
1979-07-22 00:39:36.360 ,5,0,0.,12.0,0.,12.0,0.,12.0,0.,12.0
1979-07-22 00:39:48.360 ,5,0,0.,12.0,0.,12.0,0.,12.0,0.,12.0
1979-07-22 00:40:00.360 ,6,1,0.,12.0,0.,12.0,0.,12.0,0.,12.0
1979-07-22 00:40:12.360 ,6,1,0.,12.0,0.,12.0,0.,12.0,0.,12.0
1979-07-22 00:40:24.360 ,6,0,0.,12.0,0.,12.0,0.,12.0,0.,12.0
1979-07-22 00:40:36.360 ,6,0,0.,12.0,0.,12.0,0.,12.0,0.,12.0
1979-07-22 00:40:48.360 ,7,1,0.,12.0,0.,12.0,0.,12.0,0.,12.0
1979-07-22 00:41:00.360 ,7,1,0.,12.0,0.,12.0,0.,12.0,0.,12.0
1979-07-22 00:41:12.360 ,7,0,0.,12.0,0.,12.0,0.,12.0,0.,12.0
1979-07-22 00:41:24.360 ,7,0,0.,12.0,0.,12.0,0.,12.0,0.,12.0
1979-07-22 00:41:36.360 ,7,1,0.,12.0,0.,12.0,0.,12.0,0.,12.0
1979-07-22 00:41:48.360 ,7,1,0.,12.0,0.,12.0,0.,12.0,0.,12.0
1979-07-22 00:42:00.360 ,7,0,0.,12.0,0.,12.0,0.,12.0,0.,12.0
1979-07-22 00:42:12.360 ,7,0,0.,12.0,0.,12.0,0.,12.0,0.,12.0
1979-07-22 00:42:24.360 ,6,1,0.,12.0,0.,12.0,0.,12.0,0.,12.0
1979-07-22 00:42:36.360 ,6,1,0.,12.0,0.,12.0,0.,12.0,0.,12.0
1979-07-22 00:42:48.360 ,6,0,0.,12.0,0.,12.0,0.,12.0,0.,12.0
1979-07-22 00:43:00.360 ,6,0,0.,12.0,0.,12.0,0.,12.0,0.,12.0
1979-07-22 00:43:12.360 ,5,1,0.,12.0,0.,12.0,0.,12.0,0.,12.0
1979-07-22 00:43:24.360 ,5,1,0.,12.0,0.,12.0,0.,12.0,0.,12.0
1979-07-22 00:43:36.360 ,5,0,0.,12.0,0.,12.0,0.,12.0,0.,12.0
1979-07-22 00:43:48.360 ,5,0,0.,12.0,0.,12.0,0.,12.0,0.,12.0
1979-07-22 00:44:00.360 ,4,1,0.,12.0,0.,12.0,0.,12.0,0.,12.0
1979-07-22 00:44:12.360 ,4,1,0.,12.0,0.,12.0,0.,12.0,0.,12.0
1979-07-22 00:44:24.360 ,4,0,0.,12.0,0.,12.0,0.,12.0,0.,12.0
1979-07-22 00:44:36.360 ,4,0,0.,12.0,0.,12.0,0.,12.0,0.,12.0
1979-07-22 00:44:48.360 ,3,1,0.,12.0,0.,12.0,0.,12.0,0.,12.0
1979-07-22 00:45:00.360 ,3,1,0.,12.0,0.,12.0,0.,12.0,0.,12.0
1979-07-22 00:45:12.360 ,3,0,0.,12.0,0.,12.0,0.,12.0,0.,12.0
1979-07-22 00:45:24.360 ,3,0,0.,12.0,0.,12.0,0.,12.0,0.,12.0
1979-07-22 00:45:36.360 ,2,1,0.,12.0,0.,12.0,0.,12.0,0.,12.0
1979-07-22 00:45:48.360 ,2,1,0.,12.0,0.,12.0,0.,12.0,0.,12.0
1979-07-22 00:46:00.360 ,2,0,0.,12.0,0.,12.0,0.,12.0,0.,12.0
1979-07-22 00:46:12.360 ,2,0,0.,12.0,0.,12.0,0.,12.0,0.,12.0
1979-07-22 00:46:24.360 ,1,1,0.,12.0,0.,12.0,0.,12.0,0.,12.0
1979-07-22 00:46:36.360 ,1,1,0.,12.0,0.,12.0,0.,12.0,0.,12.0
1979-07-22 00:46:48.360 ,1,0,0.,12.0,0.,12.0,0.,12.0,0.,12.0
1979-07-22 00:47:00.360 ,1,0,0.,12.0,0.,12.0,0.,12.0,0.,12.0
1979-07-22 00:47:12.360 ,0,1,0.,12.0,0.,12.0,0.,12.0,0.,12.0
1979-07-22 00:47:24.360 ,0,1,0.,12.0,0.,12.0,0.,12.0,0.,12.0
1979-07-22 00:47:36.360 ,0,0,0.,12.0,0.,12.0,0.,12.0,0.,12.0
1979-07-22 00:47:48.360 ,0,0,0.,12.0,0.,12.0,0.,12.0,0.,12.0
1979-07-22 00:48:00.360 ,0,1,0.,12.0,0.,12.0,0.,12.0,0.,12.0
1979-07-22 00:48:12.360 ,0,1,0.,12.0,0.,12.0,0.,12.0,0.,12.0
1979-07-22 00:48:24.360 ,0,0,0.,12.0,0.,12.0,0.,12.0,0.,12.0
1979-07-22 00:48:36.360 ,0,0,0.,12.0,0.,12.0,0.,12.0,0.,12.0
1979-07-22 00:48:48.360 ,1,1,0.,12.0,0.,12.0,0.,12.0,0.,12.0
1979-07-22 00:49:00.360 ,1,1,0.,12.0,0.,12.0,0.,12.0,0.,12.0
1979-07-22 00:49:12.360 ,1,0,0.,12.0,0.,12.0,0.,12.0,0.,12.0
1979-07-22 00:49:24.360 ,1,0,0.,12.0,0.,12.0,0.,12.0,0.,12.0
1979-07-22 00:49:36.360 ,2,1,0.,12.0,0.,12.0,0.,12.0,0.,12.0
1979-07-22 00:49:48.360 ,2,1,0.,12.0,0.,12.0,0.,12.0,0.,12.0
1979-07-22 00:50:00.360 ,2,0,0.,12.0,0.,12.0,0.,12.0,0.,12.0
1979-07-22 00:50:12.360 ,2,0,0.,12.0,0.,12.0,0.,12.0,0.,12.0
1979-07-22 00:50:24.360 ,3,1,0.,12.0,0.,12.0,0.,12.0,0.,12.0
1979-07-22 00:50:36.360 ,3,1,0.,12.0,0.,12.0,0.,12.0,0.,12.0
1979-07-22 00:50:48.360 ,3,0,0.,12.0,0.,12.0,0.,12.0,0.,12.0
1979-07-22 00:51:00.360 ,3,0,0.,12.0,0.,12.0,0.,12.0,0.,12.0
1979-07-22 00:51:12.360 ,4,1,0.,12.0,0.,12.0,0.,12.0,0.,12.0
1979-07-22 00:51:24.360 ,4,1,0.,12.0,0.,12.0,0.,12.0,0.,12.0
1979-07-22 00:51:36.360 ,4,0,0.,12.0,0.,12.0,0.,12.0,0.,12.0
1979-07-22 00:51:48.360 ,4,0,0.,12.0,0.,12.0,0.,12.0,0.,12.0
1979-07-22 00:52:00.360 ,5,1,0.,12.0,0.,12.0,0.,12.0,0.,12.0
1979-07-22 00:52:12.360 ,5,1,0.,12.0,0.,12.0,0.,12.0,0.,12.0
1979-07-22 00:52:24.360 ,5,0,0.,12.0,0.,12.0,0.,12.0,0.,12.0
1979-07-22 00:52:36.360 ,5,0,0.,12.0,0.,12.0,0.,12.0,0.,12.0
1979-07-22 00:52:48.360 ,6,1,0.,12.0,0.,12.0,0.,12.0,0.,12.0
1979-07-22 00:53:00.360 ,6,1,0.,12.0,0.,12.0,0.,12.0,0.,12.0
1979-07-22 00:53:12.360 ,6,0,0.,12.0,0.,12.0,0.,12.0,0.,12.0
1979-07-22 00:53:24.360 ,6,0,0.,12.0,0.,12.0,0.,12.0,0.,12.0
1979-07-22 00:53:36.360 ,7,1,0.,12.0,0.,12.0,0.,12.0,0.,12.0
1979-07-22 00:53:48.360 ,7,1,0.,12.0,0.,12.0,0.,12.0,0.,12.0
1979-07-22 00:54:00.360 ,7,0,0.,12.0,0.,12.0,0.,12.0,0.,12.0
1979-07-22 00:54:12.360 ,7,0,0.,12.0,0.,12.0,0.,12.0,0.,12.0
1979-07-22 00:54:24.360 ,7,1,0.,12.0,0.,12.0,0.,12.0,0.,12.0
1979-07-22 00:54:36.360 ,7,1,0.,12.0,0.,12.0,0.,12.0,0.,12.0
1979-07-22 00:54:48.360 ,7,0,0.,12.0,0.,12.0,0.,12.0,0.,12.0
1979-07-22 00:55:00.360 ,7,0,0.,12.0,0.,12.0,0.,12.0,0.,12.0
1979-07-22 00:55:12.360 ,6,1,0.,12.0,0.,12.0,0.,12.0,0.,12.0
1979-07-22 00:55:24.360 ,6,1,0.,12.0,0.,12.0,0.,12.0,0.,12.0
1979-07-22 00:55:36.360 ,6,0,0.,12.0,0.,12.0,0.,12.0,0.,12.0
1979-07-22 00:55:48.360 ,6,0,0.,12.0,0.,12.0,0.,12.0,0.,12.0
1979-07-22 00:56:00.360 ,5,1,0.,12.0,0.,12.0,0.,12.0,0.,12.0
1979-07-22 00:56:12.360 ,5,1,0.,12.0,0.,12.0,0.,12.0,0.,12.0
1979-07-22 00:56:24.360 ,5,0,0.,12.0,0.,12.0,0.,12.0,0.,12.0
1979-07-22 00:56:36.360 ,5,0,0.,12.0,0.,12.0,0.,12.0,0.,12.0
1979-07-22 00:56:48.360 ,4,1,0.,12.0,0.,12.0,0.,12.0,0.,12.0
1979-07-22 00:57:00.360 ,4,1,0.,12.0,0.,12.0,0.,12.0,0.,12.0
1979-07-22 00:57:12.360 ,4,0,0.,12.0,0.,12.0,0.,12.0,0.,12.0
1979-07-22 00:57:24.360 ,4,0,0.,12.0,0.,12.0,0.,12.0,0.,12.0
1979-07-22 00:57:36.360 ,3,1,0.,12.0,0.,12.0,0.,12.0,0.,12.0
1979-07-22 00:57:48.360 ,3,1,0.,12.0,0.,12.0,0.,12.0,0.,12.0
1979-07-22 00:58:00.360 ,3,0,1.,12.0,0.,12.0,0.,12.0,0.,12.0
1979-07-22 00:58:12.360 ,3,0,0.,12.0,0.,12.0,0.,12.0,0.,12.0
1979-07-22 00:58:24.360 ,2,1,0.,12.0,0.,12.0,0.,12.0,0.,12.0
1979-07-22 00:58:36.360 ,2,1,0.,12.0,0.,12.0,0.,12.0,0.,12.0
1979-07-22 00:58:48.360 ,2,0,0.,12.0,0.,12.0,0.,12.0,0.,12.0
1979-07-22 00:59:00.360 ,2,0,0.,12.0,0.,12.0,0.,12.0,0.,12.0
1979-07-22 00:59:12.360 ,1,1,0.,12.0,0.,12.0,0.,12.0,0.,12.0
1979-07-22 00:59:24.360 ,1,1,0.,12.0,0.,12.0,0.,12.0,0.,12.0
1979-07-22 00:59:36.360 ,1,0,0.,12.0,0.,12.0,0.,12.0,0.,12.0
1979-07-22 00:59:48.360 ,1,0,0.,12.0,0.,12.0,0.,12.0,0.,12.0
1979-07-22 01:00:00.360 ,0,1,0.,12.0,0.,12.0,0.,12.0,0.,12.0
1979-07-22 01:00:12.360 ,0,1,0.,12.0,0.,12.0,0.,12.0,0.,12.0
1979-07-22 01:00:24.360 ,0,0,0.,12.0,0.,12.0,0.,12.0,0.,12.0
1979-07-22 01:00:36.360 ,0,0,0.,12.0,0.,12.0,0.,12.0,0.,12.0
1979-07-22 01:00:48.360 ,0,1,0.,12.0,0.,12.0,0.,12.0,0.,12.0
1979-07-22 01:01:00.360 ,0,1,0.,12.0,0.,12.0,0.,12.0,0.,12.0
1979-07-22 01:01:12.360 ,0,0,0.,12.0,0.,12.0,0.,12.0,0.,12.0
1979-07-22 01:01:24.360 ,0,0,0.,12.0,0.,12.0,0.,12.0,0.,12.0
1979-07-22 01:01:36.360 ,1,1,0.,12.0,0.,12.0,0.,12.0,0.,12.0
1979-07-22 01:01:48.360 ,1,1,0.,12.0,0.,12.0,0.,12.0,0.,12.0
1979-07-22 01:02:00.360 ,1,0,0.,12.0,0.,12.0,0.,12.0,0.,12.0
1979-07-22 01:02:12.360 ,1,0,0.,12.0,0.,12.0,0.,12.0,0.,12.0
1979-07-22 01:02:24.360 ,2,1,0.,12.0,0.,12.0,0.,12.0,0.,12.0
1979-07-22 01:02:36.360 ,2,1,0.,12.0,0.,12.0,0.,12.0,0.,12.0
1979-07-22 01:02:48.360 ,2,0,0.,12.0,0.,12.0,0.,12.0,0.,12.0
1979-07-22 01:03:00.360 ,2,0,0.,12.0,0.,12.0,0.,12.0,0.,12.0
1979-07-22 01:03:12.360 ,3,1,0.,12.0,0.,12.0,0.,12.0,0.,12.0
1979-07-22 01:03:24.360 ,3,1,0.,12.0,0.,12.0,0.,12.0,0.,12.0
1979-07-22 01:03:36.360 ,3,0,0.,12.0,0.,12.0,0.,12.0,0.,12.0
1979-07-22 01:03:48.360 ,3,0,0.,12.0,0.,12.0,0.,12.0,0.,12.0
1979-07-22 01:04:00.360 ,4,1,1.,12.0,0.,12.0,0.,12.0,0.,12.0
1979-07-22 01:04:12.360 ,4,1,0.,12.0,0.,12.0,0.,12.0,0.,12.0
1979-07-22 01:04:24.360 ,4,0,0.,12.0,0.,12.0,0.,12.0,0.,12.0
1979-07-22 01:04:36.360 ,4,0,0.,12.0,0.,12.0,0.,12.0,0.,12.0
1979-07-22 01:04:48.360 ,5,1,0.,12.0,0.,12.0,0.,12.0,0.,12.0
1979-07-22 01:05:00.360 ,5,1,0.,12.0,0.,12.0,0.,12.0,0.,12.0
1979-07-22 01:05:12.360 ,5,0,0.,12.0,0.,12.0,0.,12.0,0.,12.0
1979-07-22 01:05:24.360 ,5,0,0.,12.0,0.,12.0,0.,12.0,0.,12.0
1979-07-22 01:05:36.360 ,6,1,0.,12.0,0.,12.0,0.,12.0,0.,12.0
1979-07-22 01:05:48.360 ,6,1,0.,12.0,0.,12.0,0.,12.0,0.,12.0
1979-07-22 01:06:00.360 ,6,0,0.,12.0,0.,12.0,0.,12.0,0.,12.0
1979-07-22 01:06:12.360 ,6,0,0.,12.0,0.,12.0,0.,12.0,0.,12.0
1979-07-22 01:06:24.360 ,7,0,0.,12.0,0.,12.0,0.,12.0,0.,12.0
1979-07-22 01:06:36.360 ,7,0,0.,12.0,0.,12.0,0.,12.0,0.,12.0
1979-07-22 01:06:48.360 ,7,0,0.,12.0,0.,12.0,0.,12.0,0.,12.0
1979-07-22 01:07:00.360 ,7,0,0.,12.0,0.,12.0,0.,12.0,0.,12.0
1979-07-22 01:07:12.360 ,4,1,0.,12.0,0.,12.0,0.,12.0,0.,12.0
1979-07-22 01:07:24.360 ,4,1,0.,12.0,0.,12.0,0.,12.0,0.,12.0
1979-07-22 01:07:36.360 ,0,1,0.,12.0,0.,12.0,0.,12.0,0.,12.0
1979-07-22 01:07:48.360 ,0,1,0.,12.0,0.,12.0,0.,12.0,0.,12.0
1979-07-22 01:08:00.360 ,3,1,0.,12.0,0.,12.0,0.,12.0,0.,12.0
1979-07-22 01:08:12.360 ,3,1,0.,12.0,0.,12.0,0.,12.0,0.,12.0
1979-07-22 01:08:24.360 ,7,1,0.,12.0,0.,12.0,0.,12.0,0.,12.0
1979-07-22 01:08:36.360 ,7,1,0.,12.0,0.,12.0,0.,12.0,0.,12.0
1979-07-22 01:08:48.360 ,4,1,0.,12.0,0.,12.0,0.,12.0,0.,12.0
1979-07-22 01:09:00.360 ,4,1,0.,12.0,0.,12.0,0.,12.0,0.,12.0
1979-07-22 01:09:12.360 ,0,1,0.,12.0,0.,12.0,0.,12.0,0.,12.0
1979-07-22 01:09:24.360 ,0,1,0.,12.0,0.,12.0,0.,12.0,0.,12.0
1979-07-22 01:09:36.360 ,3,1,0.,12.0,0.,12.0,0.,12.0,0.,12.0
1979-07-22 01:09:48.360 ,3,1,0.,12.0,0.,12.0,0.,12.0,0.,12.0
1979-07-22 01:10:00.360 ,7,1,0.,12.0,0.,12.0,0.,12.0,0.,12.0
1979-07-22 01:10:12.360 ,7,1,0.,12.0,0.,12.0,0.,12.0,0.,12.0
1979-07-22 01:10:24.360 ,4,1,0.,12.0,0.,12.0,0.,12.0,0.,12.0
1979-07-22 01:10:36.360 ,4,1,0.,12.0,0.,12.0,0.,12.0,0.,12.0
1979-07-22 01:10:48.360 ,0,1,0.,12.0,0.,12.0,0.,12.0,0.,12.0
1979-07-22 01:11:00.360 ,0,1,0.,12.0,0.,12.0,0.,12.0,0.,12.0
1979-07-22 01:11:12.360 ,3,1,0.,12.0,0.,12.0,0.,12.0,0.,12.0
1979-07-22 01:11:24.360 ,3,1,0.,12.0,0.,12.0,0.,12.0,0.,12.0
1979-07-22 01:11:36.360 ,7,1,0.,12.0,0.,12.0,0.,12.0,0.,12.0
1979-07-22 01:11:48.360 ,7,1,0.,12.0,0.,12.0,0.,12.0,0.,12.0
1979-07-22 01:12:00.360 ,4,1,0.,12.0,0.,12.0,0.,12.0,0.,12.0
1979-07-22 01:12:12.360 ,4,1,0.,12.0,0.,12.0,0.,12.0,0.,12.0
1979-07-22 01:12:24.360 ,0,1,0.,12.0,0.,12.0,0.,12.0,0.,12.0
1979-07-22 01:12:36.360 ,0,1,0.,12.0,0.,12.0,0.,12.0,0.,12.0
1979-07-22 01:12:48.360 ,3,1,0.,12.0,0.,12.0,0.,12.0,0.,12.0
1979-07-22 01:13:00.360 ,3,1,0.,12.0,0.,12.0,0.,12.0,0.,12.0
1979-07-22 01:13:12.360 ,7,1,0.,12.0,0.,12.0,0.,12.0,0.,12.0
1979-07-22 01:13:24.360 ,7,1,0.,12.0,0.,12.0,0.,12.0,0.,12.0
1979-07-22 01:13:36.360 ,4,1,0.,12.0,0.,12.0,0.,12.0,0.,12.0
1979-07-22 01:13:48.360 ,4,1,0.,12.0,0.,12.0,0.,12.0,0.,12.0
1979-07-22 01:14:00.360 ,0,1,0.,12.0,0.,12.0,0.,12.0,0.,12.0
1979-07-22 01:14:12.360 ,0,1,0.,12.0,0.,12.0,0.,12.0,0.,12.0
1979-07-22 01:14:24.360 ,3,1,0.,12.0,0.,12.0,0.,12.0,0.,12.0
1979-07-22 01:14:36.360 ,3,1,0.,12.0,0.,12.0,0.,12.0,0.,12.0
1979-07-22 01:14:48.360 ,7,1,0.,12.0,0.,12.0,0.,12.0,0.,12.0
1979-07-22 01:15:00.360 ,7,1,0.,12.0,0.,12.0,0.,12.0,0.,12.0
1979-07-22 01:15:12.360 ,4,1,0.,12.0,0.,12.0,0.,12.0,0.,12.0
1979-07-22 01:15:24.360 ,4,1,0.,12.0,0.,12.0,0.,12.0,0.,12.0
1979-07-22 01:15:36.360 ,0,1,0.,12.0,0.,12.0,0.,12.0,0.,12.0
1979-07-22 01:15:48.360 ,0,1,0.,12.0,0.,12.0,0.,12.0,0.,12.0
1979-07-22 01:16:00.360 ,3,1,0.,12.0,0.,12.0,0.,12.0,0.,12.0
1979-07-22 01:16:12.360 ,3,1,0.,12.0,0.,12.0,0.,12.0,0.,12.0
1979-07-22 01:16:24.360 ,7,1,0.,12.0,0.,12.0,0.,12.0,0.,12.0
1979-07-22 01:16:36.360 ,7,1,0.,12.0,0.,12.0,0.,12.0,0.,12.0
1979-07-22 01:16:48.360 ,4,1,0.,12.0,0.,12.0,0.,12.0,0.,12.0
1979-07-22 01:17:00.360 ,4,1,0.,12.0,0.,12.0,0.,12.0,0.,12.0
1979-07-22 01:17:12.360 ,0,1,0.,12.0,0.,12.0,0.,12.0,0.,12.0
1979-07-22 01:17:24.360 ,0,1,0.,12.0,0.,12.0,0.,12.0,0.,12.0